Weather History for Weslaco, TX

Change the Weather History Date:

Tuesday, September 25, 2012

  Actual Average (KMFE) Record (KMFE)
Temperature  
Mean Temperature 84 °F 81 °F  
Max Temperature 95 °F 91 °F 104 °F (2005)
Min Temperature 73 °F 72 °F 57 °F (1975)
Degree Days  
Heating Degree Days 0 0  
Month to date heating degree days 0  
Since 1 July heating degree days 0  
Cooling Degree Days 19 16  
Month to date cooling degree days 470  
Year to date cooling degree days 3721  
Growing Degree Days 34 (Base 50)    
Moisture  
Dew Point 67 °F    
Average Humidity 64    
Maximum Humidity 88    
Minimum Humidity 34    
Precipitation  
Precipitation 0.00 in 0.12 in 2.95 in (1965)
Month to date precipitation 3.88  
Year to date precipitation 17.45  
Sea Level Pressure  
Sea Level Pressure 29.97 in    
Wind  
Wind Speed 6 mph (SE)    
Max Wind Speed 17 mph    
Max Gust Speed 25 mph    
Visibility 10 miles    
Events      
T = Trace of Precipitation, MM = Missing Value Source: NWS Daily Summary

Daily Weather History Graph

Daily Weather History Graph

Search for Another Location

Airport:

Trip Planner

Search our weather history database for the weather conditions in past years. The results will help you decide how hot, cold, wet, or windy it might be!

Date:

Astronomy

Sep. 25, 2012 Rise Set
Actual Time 7:21 AM CDT 7:24 PM CDT
Civil Twilight 6:58 AM CDT 7:47 PM CDT
Nautical Twilight 6:32 AM CDT 8:14 PM CDT
Astronomical Twilight 6:05 AM CDT 8:41 PM CDT
Moon 4:30 PM CDT (9/25) 3:08 AM CDT (9/25)
Length of Visible Light 12h 48m
Length of Day
12h 02m
Waxing Gibbous, 80% of the Moon is Illuminated
Sep 25
Waxing Gibbous
Sep 29
Full
Oct 8
Last Quarter
Oct 15
New
Oct 21
First Quarter

Hourly Weather History & Observations

Time (CDT) Temp. Heat Index Dew Point Humidity Pressure Visibility Wind Dir Wind Speed Gust Speed Precip Events Conditions
12:15 AM 77.0 °F - 68.0 °F 74% 30.04 in 10.0 mi SE 4.6 mph - N/A   Clear
12:35 AM 77.0 °F - 68.0 °F 74% 30.04 in 10.0 mi SE 3.5 mph - N/A   Clear
12:55 AM 75.2 °F - 68.0 °F 78% 30.03 in 10.0 mi SE 3.5 mph - N/A   Clear
1:15 AM 75.2 °F - 68.0 °F 78% 30.03 in 10.0 mi SE 3.5 mph - N/A   Clear
1:35 AM 75.2 °F - 68.0 °F 78% 30.03 in 10.0 mi SE 4.6 mph - N/A   Clear
1:55 AM 75.2 °F - 69.8 °F 83% 30.02 in 10.0 mi SE 4.6 mph - N/A   Clear
2:15 AM 75.2 °F - 69.8 °F 83% 30.02 in 10.0 mi SE 6.9 mph - N/A   Clear
2:35 AM 75.2 °F - 69.8 °F 83% 30.02 in 10.0 mi SE 5.8 mph - N/A   Clear
2:55 AM 75.2 °F - 68.0 °F 78% 30.01 in 10.0 mi SSE 5.8 mph - N/A   Clear
3:15 AM 73.4 °F - 68.0 °F 83% 30.01 in 10.0 mi SSE 4.6 mph - N/A   Clear
3:35 AM 73.4 °F - 68.0 °F 83% 30.01 in 10.0 mi SSE 3.5 mph - N/A   Clear
3:55 AM 73.4 °F - 69.8 °F 88% 30.00 in 10.0 mi SSE 4.6 mph - N/A   Clear
4:15 AM 73.4 °F - 69.8 °F 88% 29.99 in 10.0 mi SSE 5.8 mph - N/A   Clear
4:35 AM 73.4 °F - 68.0 °F 83% 29.99 in 10.0 mi SSE 3.5 mph - N/A   Clear
4:55 AM 73.4 °F - 68.0 °F 83% 29.98 in 10.0 mi Calm Calm - N/A   Clear
5:15 AM 73.4 °F - 68.0 °F 83% 29.98 in 10.0 mi ESE 3.5 mph - N/A   Clear
5:35 AM 73.4 °F - 68.0 °F 83% 29.98 in 10.0 mi Calm Calm - N/A   Clear
5:55 AM 73.4 °F - 68.0 °F 83% 29.98 in 10.0 mi Calm Calm - N/A   Clear
6:15 AM 73.4 °F - 68.0 °F 83% 29.98 in 10.0 mi SE 3.5 mph - N/A   Clear
6:35 AM 73.4 °F - 68.0 °F 83% 29.98 in 10.0 mi Calm Calm - N/A   Clear
6:55 AM 73.4 °F - 68.0 °F 83% 29.98 in 10.0 mi Calm Calm - N/A   Clear
7:15 AM 73.4 °F - 68.0 °F 83% 29.98 in 10.0 mi Calm Calm - N/A   Clear
7:35 AM 73.4 °F - 68.0 °F 83% 29.98 in 10.0 mi ESE 3.5 mph - N/A   Clear
7:55 AM 73.4 °F - 68.0 °F 83% 29.98 in 10.0 mi Calm Calm - N/A   Clear
8:15 AM 75.2 °F - 68.0 °F 78% 29.99 in 10.0 mi Calm Calm - N/A   Clear
8:35 AM 77.0 °F - 68.0 °F 74% 29.99 in 10.0 mi SE 4.6 mph - N/A   Clear
8:55 AM 78.8 °F - 69.8 °F 74% 30.00 in 10.0 mi SSE 4.6 mph - N/A   Clear
9:15 AM 80.6 °F 83.9 °F 69.8 °F 70% 30.01 in 10.0 mi SSE 5.8 mph - N/A   Clear
9:35 AM 82.4 °F 86.3 °F 69.8 °F 66% 30.01 in 10.0 mi SSE 5.8 mph - N/A   Clear
9:55 AM 84.2 °F 88.4 °F 69.8 °F 62% 30.02 in 10.0 mi SE 9.2 mph - N/A   Clear
10:15 AM 84.2 °F 88.4 °F 69.8 °F 62% 30.02 in 10.0 mi SE 9.2 mph - N/A   Scattered Clouds
10:35 AM 86.0 °F 90.4 °F 69.8 °F 58% 30.02 in 10.0 mi SSE 13.8 mph 18.4 mph N/A   Mostly Cloudy
10:55 AM 86.0 °F 89.4 °F 68.0 °F 55% 30.02 in 10.0 mi SSE 11.5 mph 16.1 mph N/A   Mostly Cloudy
11:15 AM 87.8 °F 91.4 °F 68.0 °F 52% 30.02 in 10.0 mi SSE 12.7 mph 20.7 mph N/A   Scattered Clouds
11:35 AM 89.6 °F 92.2 °F 66.2 °F 46% 30.01 in 10.0 mi SSE 9.2 mph 17.3 mph N/A   Scattered Clouds
11:55 AM 89.6 °F 91.1 °F 64.4 °F 43% 30.00 in 10.0 mi South 13.8 mph 17.3 mph N/A   Mostly Cloudy
12:15 PM 89.6 °F 91.1 °F 64.4 °F 43% 29.99 in 10.0 mi South 11.5 mph - N/A   Mostly Cloudy
12:35 PM 91.4 °F 93.2 °F 64.4 °F 41% 29.98 in 10.0 mi SSE 12.7 mph - N/A   Mostly Cloudy
12:55 PM 91.4 °F 93.2 °F 64.4 °F 41% 29.98 in 10.0 mi SSE 11.5 mph 18.4 mph N/A   Mostly Cloudy
1:15 PM 91.4 °F 93.2 °F 64.4 °F 41% 29.97 in 10.0 mi SE 10.4 mph - N/A   Scattered Clouds
2:15 PM 91.4 °F 91.4 °F 60.8 °F 36% 29.93 in 10.0 mi SE 10.4 mph 21.9 mph N/A   Mostly Cloudy
2:35 PM 91.4 °F 92.1 °F 62.6 °F 38% 29.93 in 10.0 mi SSE 11.5 mph 23.0 mph N/A   Mostly Cloudy
2:55 PM 95.0 °F 96.0 °F 62.6 °F 34% 29.92 in 10.0 mi SSE 13.8 mph 19.6 mph N/A   Mostly Cloudy
3:15 PM 91.4 °F 92.1 °F 62.6 °F 38% 29.91 in 10.0 mi SE 13.8 mph 23.0 mph N/A   Mostly Cloudy
3:35 PM 91.4 °F 92.1 °F 62.6 °F 38% 29.90 in 10.0 mi SE 16.1 mph 20.7 mph N/A   Scattered Clouds
3:55 PM 91.4 °F 91.4 °F 60.8 °F 36% 29.90 in 10.0 mi SSE 15.0 mph 20.7 mph N/A   Scattered Clouds
4:15 PM 91.4 °F 92.1 °F 62.6 °F 38% 29.89 in 10.0 mi ESE 17.3 mph 24.2 mph N/A   Scattered Clouds
4:35 PM 91.4 °F 92.1 °F 62.6 °F 38% 29.89 in 10.0 mi ESE 13.8 mph 21.9 mph N/A   Mostly Cloudy
4:55 PM 91.4 °F 92.1 °F 62.6 °F 38% 29.89 in 10.0 mi SE 12.7 mph 24.2 mph N/A   Mostly Cloudy
5:15 PM 89.6 °F 91.1 °F 64.4 °F 43% 29.89 in 10.0 mi ESE 12.7 mph 18.4 mph N/A   Scattered Clouds
5:35 PM 91.4 °F 92.1 °F 62.6 °F 38% 29.89 in 10.0 mi ESE 15.0 mph 23.0 mph N/A   Scattered Clouds
5:55 PM 89.6 °F 91.1 °F 64.4 °F 43% 29.89 in 10.0 mi SE 17.3 mph 23.0 mph N/A   Mostly Cloudy
6:15 PM 89.6 °F 92.2 °F 66.2 °F 46% 29.90 in 10.0 mi SE 15.0 mph 23.0 mph N/A   Scattered Clouds
6:35 PM 87.8 °F 90.4 °F 66.2 °F 49% 29.90 in 10.0 mi SE 16.1 mph 25.3 mph N/A   Mostly Cloudy
6:55 PM 86.0 °F 88.2 °F 66.2 °F 51% 29.90 in 10.0 mi ESE 11.5 mph 21.9 mph N/A   Mostly Cloudy
7:15 PM 86.0 °F 89.4 °F 68.0 °F 55% 29.91 in 10.0 mi SE 10.4 mph 23.0 mph N/A   Scattered Clouds
7:55 PM 82.4 °F 85.4 °F 68.0 °F 62% 29.91 in 10.0 mi SE 12.7 mph 19.6 mph N/A   Scattered Clouds
8:15 PM 82.4 °F 85.4 °F 68.0 °F 62% 29.92 in 10.0 mi SE 11.5 mph 18.4 mph N/A   Clear
8:35 PM 82.4 °F 85.4 °F 68.0 °F 62% 29.92 in 10.0 mi SE 11.5 mph 16.1 mph N/A   Clear
8:55 PM 80.6 °F 83.2 °F 68.0 °F 65% 29.93 in 10.0 mi SE 10.4 mph - N/A   Clear
9:15 PM 80.6 °F 83.2 °F 68.0 °F 65% 29.94 in 10.0 mi SE 9.2 mph 17.3 mph N/A   Clear
9:35 PM 80.6 °F 83.2 °F 68.0 °F 65% 29.94 in 10.0 mi SE 6.9 mph - N/A   Clear
9:55 PM 80.6 °F 83.9 °F 69.8 °F 70% 29.94 in 10.0 mi ESE 6.9 mph - N/A   Clear
10:15 PM 80.6 °F 83.9 °F 69.8 °F 70% 29.95 in 10.0 mi ESE 5.8 mph - N/A   Clear
10:35 PM 78.8 °F - 69.8 °F 74% 29.95 in 10.0 mi SE 5.8 mph - N/A   Clear
10:55 PM 78.8 °F - 69.8 °F 74% 29.96 in 10.0 mi SE 3.5 mph - N/A   Clear
11:35 PM 78.8 °F - 69.8 °F 74% 29.95 in 10.0 mi SE 4.6 mph - N/A   Clear